Regional Weather Roundup
Issued by NWS Green Bay, WI

Home | Current Version | Previous Version | Text Only | Print | Product List | Glossary On
Versions: 1 2 3 4 5 6 7 8 9 10 11 12 13 14 15 16 17 18 19 20 21 22 23 24 25 26 27 28 29 30 31 32 33 34 35 36 37 38 39 40 41 42 43 44 45 46 47 48 49 50
000
ASUS43 KGRB 312211
RWRGRB

NORTH-CENTRAL AND NORTHEAST WISCONSIN REGIONAL WEATHER ROUNDUP
NATIONAL WEATHER SERVICE GREEN BAY WI
500 PM CDT TUE MAY 31 2016

WIZ005-009-010>012-018-019-312300-
NORTH CENTRAL WISCONSIN

CITY           SKY/WX    TMP DP  RH WIND       PRES   REMARKS
IRONWOOD       CLOUDY    72  55  56 SE7       29.85S
MANITOWISH WTR CLOUDY    69  55  60 SE13G23   29.91R
ARBOR VITAE    MOSUNNY   72  56  57 S15G23    29.93R
EAGLE RIVER      N/A     71  50  47 SE13G20   29.94S
LAND O LAKES   CLOUDY    71  49  46 SE14G22   29.95R
RHINELANDER    CLOUDY    70  54  56 SE12G26   29.94F
PHILLIPS       CLOUDY    69  58  67 SE17G23   29.89R
ANTIGO         CLOUDY    64  55  71 SE15      29.97F
TOMAHAWK       PTSUNNY   70  57  63 SE10G17   29.92S
MERRILL        CLOUDY    70  61  73 SE14G22   29.94R
$$

WIZ013-073-312300-
NORTHEAST WISCONSIN

CITY           SKY/WX    TMP DP  RH WIND       PRES   REMARKS
IRON MOUNTAIN  CLOUDY    68  44  42 SE13      29.98F
MARINETTE        N/A    N/A N/A N/A MISG        N/A
OCONTO         CLOUDY    65  52  63 E7        30.00F
$$

WIZ017-030-035>037-045-312300-
CENTRAL WISCONSIN

CITY           SKY/WX    TMP DP  RH WIND       PRES   REMARKS
MEDFORD        CLOUDY    69  58  69 SE16G28   29.90R
WAUSAU         CLOUDY    70  57  63 SE14G22   29.92F
MOSINEE        MOSUNNY   66  61  82 SE15      29.94F
MARSHFIELD     CLOUDY    70  58  65 SE13G21   29.90S
WISC RAPIDS    CLOUDY    73  58  59 SE16G22   29.92F
STEVENS POINT  CLOUDY    68  57  68 SE12      29.94F
WAUPACA        DRIZZLE   70  61  72 SE12      29.95S
SHAWANO        CLOUDY    70  56  60 SE13G18   29.97F
CLINTONVILLE   LGT RAIN  68  54  60 SE14      29.95F
WAUTOMA        PTSUNNY  N/A N/A N/A SE10      29.95F
$$

WIZ038-039-048-051-312300-
FOX VALLEY

CITY           SKY/WX    TMP DP  RH WIND       PRES   REMARKS
NWS GREEN BAY  CLOUDY    68  59  73 E6        29.99F
APPLETON       PTSUNNY   66  55  68 SE14      29.97F
OSHKOSH        CLOUDY    67  59  75 SE9       29.96F
FOND DU LAC    CLOUDY    67  62  84 SE10      29.97F
$$

WIZ022-050-052-312300-
EAST CENTRAL WISCONSIN

CITY           SKY/WX    TMP DP  RH WIND       PRES   REMARKS
EPHRAIM        MOCLDY    64  49  58 E7        30.02F
STURGEON BAY   SUNNY     67  51  56 E7        30.02F
MANITOWOC      CLOUDY    63  52  67 N3        30.01F
SHEBOYGAN      CLOUDY    66  55  67 NE5       30.00F
$$

LMZ563-521-522-541>543-312300-
LAKESHORE

STATION/POSITION TIME  TEMP    WIND        PRES    VSBY  WAVE
                       AIR SEA DIR/SP/G                  HT/PER
                 (UTC) (F)     (DEG/KT/KT) (MB)    (MI)  (FT/S)
SHEBOYGAN LKSHOR 2200   52     360/  8/  8 1016.6F
KEWAUNEE LKSHORE 2100   55      20/  5/ 10 1016.7F
ALGOMA MARINA    2102           60/  9/ 12   N/A
NORTHPORT PIER   2100   59      80/  5/  7 1017.3F
N MID LAKE BUOY  2050   51 48   30/  8/  8 1017.2          1/ 4
SISTER BAY LKSHO 2120   67     150/  9/ 13   N/A
CHAMBERS ISLAND  2100   57      20/ 10/ 12 1016.9F
MENOMINEE LKSHOR 2100   56      30/ 13/ 14 1016.1F
$$




USA.gov is the U.S. government's official web portal to all federal, state and local government web resources and services.